Location: Amherst
(42.5000°N, 72.5000°W)
Time: 20:15:01
(UTC-04:00)

ISS - Pass Details

Date: 19 July 2018
Orbit: 402 x 408 km, 51.6° (Epoch: 17 July)

Event Time Altitude Azimuth Distance (km) Brightness Sun altitude
Rises 00:04:23 0° 270° (W) 2,319 0.2 -25.5°
Enters shadow 00:04:30 - 270° (W) 2,274 0.1 -25.5°
Exits shadow 00:07:05 12° 288° (WNW) 1,336 -0.9 -25.6°
Maximum altitude 00:09:28 25° 341° (NNW) 875 -1.5 -25.7°
Drops below altitude 10° 00:12:15 10° 39° (NE) 1,468 -0.5 -25.8°
Sets 00:14:35 0° 54° (NE) 2,331 0.4 -25.9°
